Voltar ao catálogo

POLYTECH UNIVERSE-5

AtivoCiênciaSSO
NORAD 61745·PAYLOAD·🇷🇺 Russia

Lançado Nov 4, 2024 de Vostochny Cosmodrome

Loading…

Próximas Passagens (próximas 24 horas)

TLE

AtualizadoSource: Space-Track

Época: Sep 14, 2026, 22:16 UTC

1 61745U 24199L   26257.92823993  .00109623  00000-0  78986-3 0  9997
2 61745  97.2753 138.9365 0000722 305.3938  54.7258 15.73235797151732

Acompanhe POLYTECH UNIVERSE-5 em tempo real com AllMySat

Download on the App Store